Regional Weather Roundup
Issued by NWS

Home | Current Version | Previous Version | Text Only | Print | Product List | Glossary Off
Versions: 1 2 3 4 5 6 7 8 9 10 11 12 13 14 15 16 17 18 19 20 21 22 23 24 25 26 27 28 29 30 31 32 33 34 35 36 37 38 39 40 41 42 43 44 45 46 47 48 49 50

000
ASUS43 KFSD 111102
RWRSD

WEATHER ROUNDUP FOR SOUTH DAKOTA
NATIONAL WEATHER SERVICE SIOUX FALLS SD
500 AM CST SUN DEC 11 2016

NOTE: "FAIR" INDICATES FEW OR NO CLOUDS BELOW 12,000 FEET WITH NO
SIGNIFICANT WEATHER AND/OR OBSTRUCTIONS TO VISIBILITY.


SDZ001>005-009-010-012>017-111200-
NORTHWEST AND NORTH CENTRAL SOUTH DAKOTA

CITY           SKY/WX    TMP DP  RH WIND       PRES   REMARKS
BUFFALO          N/A      8   4  83 W15       29.75S WCI  -9
FAITH            N/A      3   0  87 W7        29.87F WCI  -9
MOBRIDGE       CLOUDY     7   0  73 N5        29.90F WCI  -2
$$

SDZ012>016-024>037-041>051-057-063-072>074-111200-
SOUTHWEST AND SOUTH CENTRAL SOUTH DAKOTA

CITY           SKY/WX    TMP DP  RH WIND       PRES   REMARKS
RAPID CTY ARPT CLOUDY    -1  -6  79 NE5       29.84S WCI -11
PIERRE         CLOUDY     9   4  80 N8        29.90F WCI  -3
CUSTER         CLOUDY    22   6  50 VRB5      29.73S WCI  16
ELLSWORTH AFB  CLOUDY     2  -1  85 CALM      29.82F
PHILIP         CLOUDY     9   4  80 W5        29.92R WCI   1
PINE RIDGE     CLOUDY     6   4  91 E3        29.84R
SPEARFISH      FAIR      19  10  68 NW8       29.80S WCI   9
WINNER         CLOUDY    14  10  84 NW16      29.89R WCI  -2
$$

SDZ004>011-016>023-039-040-111200-
NORTHEAST SOUTH DAKOTA

CITY           SKY/WX    TMP DP  RH WIND       PRES   REMARKS
ABERDEEN       LGT SNOW  10   4  76 N9        29.94F WCI  -3
WATERTOWN      LGT SNOW  11   7  84 E8        29.86S FOG     WCI  -1
BROOKINGS      LGT SNOW  14  10  85 E8        29.85R FOG     WCI   3
SISSETON         N/A     12   9  87 E5        29.96S WCI   4
$$

SDZ017-020-022-023-036>040-048>070-111200-
SOUTHEAST SOUTH DAKOTA

CITY           SKY/WX    TMP DP  RH WIND       PRES   REMARKS
SIOUX FALLS    FLURRIES  22  20  92 NE7       29.83R WCI  13
HURON          CLOUDY    15  13  91 N8        29.90R WCI   4
CHAMBERLAIN    CLOUDY    18  15  88 NW14      29.88R WCI   4
MITCHELL       CLOUDY    23  20  88 N7        29.85F WCI  15
YANKTON        CLOUDY    25  19  80 NE3       29.80S
$$

ABBREVIATIONS USED IN REMARKS
   TC - TEMPERATURE IN CELSIUS
  WCI - WIND CHILL INDEX
   HX - HEAT INDEX
  VSB - VISIBILITY




USA.gov is the U.S. government's official web portal to all federal, state and local government web resources and services.